Location: Unspecified
(42.3650°N, 71.1030°W)
Time: 01:03:00
(UTC+00:00)

Vanguard 3 - Pass Details

Date: 26 June 2024
Orbit: 508 x 3230 km, 33.4° (Epoch: 20 July)

Event Time Altitude Azimuth Distance (km) Brightness Sun altitude
Rises 08:27:47 0° 183° (S) 7,112 11.5 -7.0°
Reaches altitude 10° 08:39:16 10° 153° (SSE) 5,631 11.3 -5.3°
Maximum altitude 08:42:15 11° 143° (SE) 5,384 11.3 -4.9°
Drops below altitude 10° 08:45:03 10° 132° (SE) 5,241 11.4 -4.5°
Sets 08:53:36 0° 100° (E) 5,483 12.1 -3.2°
